| time (UTC) | temp F | wind direction | speed knots | gust knots | rain 1hr in | rain 24hr in | rain mn in | humidity % | barometer mb |
| 20260504202548 | 73 | 351 | 0.9 | 0.0 | 0.00 | 0.00 | 0.01 | 29 | 1007.1 |
| 20260504202042 | 73 | 8 | 0.9 | 0.0 | 0.00 | 0.00 | 0.01 | 28 | 1007.0 |
| 20260504201537 | 74 | 177 | 1.7 | 0.0 | 0.00 | 0.00 | 0.01 | 27 | 1007.0 |
| 20260504201030 | 74 | 268 | 2.6 | 0.0 | 0.00 | 0.00 | 0.01 | 27 | 1007.0 |
| 20260504200524 | 74 | 234 | 0.9 | 0.0 | 0.00 | 0.00 | 0.01 | 30 | 1007.1 |
| 20260504200018 | 74 | 165 | 0.0 | 0.0 | 0.00 | 0.00 | 0.01 | 27 | 1007.1 |
| 20260504195512 | 74 | 231 | 2.6 | 0.0 | 0.00 | 0.00 | 0.01 | 27 | 1007.1 |
| 20260504195007 | 74 | 231 | 2.6 | 0.0 | 0.00 | 0.00 | 0.01 | 29 | 1007.2 |
| 20260504194500 | 74 | 222 | 0.9 | 10.4 | 0.00 | 0.00 | 0.01 | 28 | 1007.2 |
| 20260504193954 | 74 | 220 | 0.9 | 10.4 | 0.00 | 0.00 | 0.01 | 27 | 1007.2 |
| 20260504193448 | 74 | 217 | 4.3 | 10.4 | 0.00 | 0.00 | 0.01 | 27 | 1007.2 |
| 20260504192942 | 74 | 188 | 3.5 | 9.6 | 0.00 | 0.00 | 0.01 | 28 | 1007.1 |
| 20260504192436 | 74 | 228 | 3.5 | 10.4 | 0.00 | 0.00 | 0.01 | 27 | 1007.1 |
| 20260504191930 | 74 | 230 | 0.9 | 11.3 | 0.00 | 0.00 | 0.01 | 29 | 1007.1 |
| 20260504191424 | 74 | 204 | 5.2 | 11.3 | 0.00 | 0.00 | 0.01 | 26 | 1007.2 |
| 20260504190918 | 74 | 174 | 1.7 | 10.4 | 0.00 | 0.00 | 0.01 | 27 | 1007.1 |
| 20260504190412 | 74 | 222 | 1.7 | 11.3 | 0.00 | 0.00 | 0.01 | 27 | 1007.2 |
| 20260504185906 | 74 | 212 | 0.0 | 11.3 | 0.00 | 0.00 | 0.01 | 30 | 1007.2 |
| 20260504185400 | 74 | 249 | 2.6 | 0.0 | 0.00 | 0.00 | 0.01 | 28 | 1007.4 |
| 20260504184854 | 74 | 211 | 0.9 | 0.0 | 0.00 | 0.00 | 0.01 | 30 | 1007.4 |
| 20260504184348 | 73 | 255 | 0.9 | 0.0 | 0.00 | 0.00 | 0.01 | 29 | 1007.5 |
| 20260504183842 | 73 | 222 | 2.6 | 0.0 | 0.00 | 0.00 | 0.01 | 27 | 1007.6 |
| 20260504183336 | 73 | 231 | 3.5 | 10.4 | 0.00 | 0.00 | 0.01 | 27 | 1007.5 |
| 20260504182830 | 73 | 226 | 1.7 | 10.4 | 0.01 | 0.00 | 0.01 | 29 | 1007.7 |
| 20260504182325 | 73 | 229 | 2.6 | 0.0 | 0.01 | 0.00 | 0.01 | 28 | 1007.7 |
| 20260504181818 | 73 | 213 | 0.0 | 9.6 | 0.01 | 0.00 | 0.01 | 29 | 1007.8 |
| 20260504181312 | 73 | 221 | 3.5 | 9.6 | 0.01 | 0.00 | 0.01 | 27 | 1007.8 |
| 20260504180806 | 73 | 176 | 1.7 | 0.0 | 0.01 | 0.00 | 0.01 | 28 | 1007.9 |
| 20260504180300 | 73 | 271 | 1.7 | 10.4 | 0.01 | 0.00 | 0.01 | 27 | 1008.0 |
| 20260504175754 | 73 | 216 | 2.6 | 0.0 | 0.01 | 0.00 | 0.01 | 28 | 1008.2 |
| 20260504175248 | 72 | 232 | 2.6 | 0.0 | 0.01 | 0.00 | 0.01 | 29 | 1008.2 |
| 20260504174742 | 72 | 215 | 1.7 | 10.4 | 0.01 | 0.00 | 0.01 | 30 | 1008.3 |
| 20260504174236 | 72 | 196 | 2.6 | 10.4 | 0.01 | 0.00 | 0.01 | 30 | 1008.2 |
| 20260504173730 | 71 | 183 | 2.6 | 10.4 | 0.01 | 0.00 | 0.01 | 30 | 1008.3 |
| 20260504173224 | 71 | 212 | 3.5 | 10.4 | 0.01 | 0.00 | 0.01 | 30 | 1008.3 |
| 20260504172718 | 0 | 195 | 3.5 | 9.6 | 0.01 | 0.00 | 0.01 | 1008.3 | |
| 20260504172212 | 71 | 218 | 2.6 | 13.0 | 0.00 | 0.00 | 0.00 | 29 | 1008.3 |
| 20260504171706 | 71 | 233 | 1.7 | 13.0 | 0.00 | 0.00 | 0.00 | 30 | 1008.3 |
| 20260504171200 | 71 | 242 | 3.5 | 12.2 | 0.00 | 0.00 | 0.00 | 31 | 1008.2 |
| 20260504170654 | 70 | 212 | 2.6 | 12.2 | 0.00 | 0.00 | 0.00 | 32 | 1008.3 |
| 20260504170149 | 70 | 247 | 2.6 | 10.4 | 0.00 | 0.00 | 0.00 | 30 | 1008.4 |
| 20260504150936 | 67 | 250 | 1.7 | 11.3 | 0.00 | 0.00 | 0.00 | 35 | 1009.8 |
| 20260504150430 | 66 | 126 | 0.9 | 9.6 | 0.00 | 0.00 | 0.00 | 36 | 1009.9 |
| 20260504141330 | 64 | 201 | 4.3 | 15.6 | 0.00 | 0.00 | 0.00 | 37 | 1010.5 |
| 20260504140824 | 63 | 233 | 3.5 | 0.0 | 0.00 | 0.00 | 0.00 | 39 | 1010.6 |
| 20260504140318 | 63 | 244 | 0.9 | 0.0 | 0.00 | 0.00 | 0.00 | 40 | 1010.6 |
| 20260504130713 | 58 | 189 | 0.9 | 0.0 | 0.00 | 0.00 | 0.00 | 45 | 1011.5 |
| 20260504130207 | 58 | 226 | 2.6 | 0.0 | 0.00 | 0.00 | 0.00 | 46 | 1011.6 |
| 20260504110449 | 49 | 198 | 0.9 | 0.0 | 0.00 | 0.00 | 0.00 | 56 | 1012.2 |
| 20260504100337 | 44 | 167 | 0.0 | 0.0 | 0.00 | 0.00 | 0.00 | 68 | 1012.2 |
| 20260504081631 | 43 | 356 | 0.0 | 0.0 | 0.00 | 0.00 | 0.00 | 76 | 1012.0 |
| 20260504081125 | 43 | 356 | 0.0 | 0.0 | 0.00 | 0.00 | 0.00 | 76 | 1012.1 |
| 20260504080619 | 43 | 356 | 0.0 | 0.0 | 0.00 | 0.00 | 0.00 | 76 | 1012.0 |
| 20260504080113 | 43 | 356 | 0.0 | 0.0 | 0.00 | 0.00 | 0.00 | 78 | 1011.9 |
| 20260504050749 | 38 | 356 | 0.0 | 0.0 | 0.00 | 0.00 | 0.00 | 80 | 1011.9 |
| 20260504050243 | 37 | 356 | 0.0 | 0.0 | 0.00 | 0.00 | 0.00 | 79 | 1012.0 |
| 20260504045737 | 37 | 356 | 0.0 | 0.0 | 0.00 | 0.00 | 0.00 | 80 | 1012.0 |
| 20260504045231 | 37 | 356 | 0.0 | 0.0 | 0.00 | 0.00 | 0.00 | 81 | 1012.0 |
| 20260504044725 | 36 | 356 | 0.0 | 0.0 | 0.00 | 0.00 | 0.00 | 83 | 1012.0 |
| 20260504044219 | 36 | 356 | 0.0 | 0.0 | 0.00 | 0.00 | 0.00 | 83 | 1012.0 |
| 20260504043713 | 36 | 356 | 0.0 | 0.0 | 0.00 | 0.00 | 0.00 | 83 | 1012.0 |
| 20260504043207 | 36 | 356 | 0.0 | 0.0 | 0.00 | 0.00 | 0.00 | 83 | 1012.0 |
| 20260504042701 | 36 | 356 | 0.0 | 0.0 | 0.00 | 0.00 | 0.00 | 82 | 1012.0 |
| 20260504042155 | 36 | 356 | 0.0 | 0.0 | 0.00 | 0.00 | 0.00 | 82 | 1011.9 |
| 20260504041649 | 35 | 356 | 0.0 | 0.0 | 0.00 | 0.00 | 0.00 | 82 | 1011.9 |
| 20260504041143 | 36 | 356 | 0.0 | 0.0 | 0.00 | 0.00 | 0.00 | 82 | 1011.9 |
| 20260504040637 | 36 | 356 | 0.0 | 0.0 | 0.00 | 0.00 | 0.00 | 81 | 1011.7 |
| 20260504040131 | 36 | 356 | 0.0 | 0.0 | 0.00 | 0.00 | 0.00 | 81 | 1011.7 |
| 20260504035625 | 36 | 356 | 0.0 | 0.0 | 0.00 | 0.00 | 0.00 | 80 | 1011.7 |
| 20260504035119 | 36 | 356 | 0.0 | 0.0 | 0.00 | 0.00 | 0.00 | 79 | 1011.6 |
| 20260504034613 | 36 | 356 | 0.0 | 0.0 | 0.00 | 0.00 | 0.00 | 78 | 1011.6 |
| 20260504034107 | 36 | 356 | 0.0 | 0.0 | 0.00 | 0.00 | 0.00 | 78 | 1011.5 |
| 20260504033601 | 37 | 356 | 0.0 | 0.0 | 0.00 | 0.00 | 0.00 | 77 | 1011.5 |
| 20260504033055 | 37 | 356 | 0.0 | 0.0 | 0.00 | 0.00 | 0.00 | 76 | 1011.4 |
| 20260504032549 | 37 | 356 | 0.0 | 0.0 | 0.00 | 0.00 | 0.00 | 76 | 1011.4 |
| 20260504032043 | 37 | 356 | 0.0 | 0.0 | 0.00 | 0.00 | 0.00 | 75 | 1011.4 |
| 20260504031537 | 38 | 356 | 0.0 | 0.0 | 0.00 | 0.00 | 0.00 | 75 | 1011.4 |
| 20260504031031 | 38 | 356 | 0.0 | 0.0 | 0.00 | 0.00 | 0.00 | 74 | 1011.3 |
| 20260504030525 | 38 | 356 | 0.0 | 0.0 | 0.00 | 0.00 | 0.00 | 72 | 1011.3 |
| 20260504030019 | 38 | 356 | 0.0 | 0.0 | 0.00 | 0.00 | 0.00 | 72 | 1011.2 |
| 20260504025513 | 38 | 356 | 0.0 | 0.0 | 0.00 | 0.00 | 0.00 | 72 | 1011.2 |
| 20260504025007 | 39 | 356 | 0.0 | 0.0 | 0.00 | 0.00 | 0.00 | 71 | 1011.2 |
| 20260504024501 | 39 | 356 | 0.0 | 0.0 | 0.00 | 0.00 | 0.00 | 71 | 1011.2 |
| 20260504023955 | 39 | 356 | 0.0 | 0.0 | 0.00 | 0.00 | 0.00 | 71 | 1011.2 |
| 20260504023449 | 39 | 356 | 0.0 | 0.0 | 0.00 | 0.00 | 0.00 | 70 | 1011.2 |
| 20260504022943 | 40 | 356 | 0.0 | 0.0 | 0.00 | 0.00 | 0.00 | 70 | 1011.2 |
| 20260504022437 | 40 | 356 | 0.0 | 0.0 | 0.00 | 0.00 | 0.00 | 69 | 1011.2 |
| 20260504021931 | 40 | 356 | 0.0 | 0.0 | 0.00 | 0.00 | 0.00 | 69 | 1011.1 |
| 20260504021425 | 40 | 356 | 0.0 | 0.0 | 0.00 | 0.00 | 0.00 | 68 | 1011.1 |
| 20260504020919 | 41 | 356 | 0.0 | 0.0 | 0.00 | 0.00 | 0.00 | 68 | 1011.0 |
| 20260504020413 | 41 | 356 | 0.0 | 0.0 | 0.00 | 0.00 | 0.00 | 67 | 1011.0 |
| 20260504015907 | 41 | 356 | 0.0 | 0.0 | 0.00 | 0.00 | 0.00 | 67 | 1011.0 |
| 20260504015401 | 41 | 356 | 0.0 | 0.0 | 0.00 | 0.00 | 0.00 | 66 | 1011.0 |
| 20260504014855 | 42 | 356 | 0.0 | 0.0 | 0.00 | 0.00 | 0.00 | 65 | 1011.0 |
| 20260504014349 | 42 | 356 | 0.0 | 0.0 | 0.00 | 0.00 | 0.00 | 64 | 1010.9 |
| 20260504013843 | 43 | 356 | 0.0 | 0.0 | 0.00 | 0.00 | 0.00 | 64 | 1010.8 |
| 20260504013337 | 43 | 356 | 0.0 | 0.0 | 0.00 | 0.00 | 0.00 | 63 | 1010.8 |
| 20260504012831 | 43 | 356 | 0.0 | 0.0 | 0.00 | 0.00 | 0.00 | 63 | 1010.7 |
| 20260504012325 | 44 | 356 | 0.0 | 0.0 | 0.00 | 0.00 | 0.00 | 62 | 1010.7 |
| 20260504011819 | 44 | 356 | 0.0 | 0.0 | 0.00 | 0.00 | 0.00 | 61 | 1010.6 |
| 20260504011313 | 44 | 356 | 0.0 | 0.0 | 0.00 | 0.00 | 0.00 | 59 | 1010.5 |
| 20260504010807 | 45 | 356 | 0.0 | 0.0 | 0.00 | 0.00 | 0.00 | 57 | 1010.4 |
| 20260504010301 | 45 | 356 | 0.0 | 0.0 | 0.00 | 0.00 | 0.00 | 57 | 1010.3 |
| 20260504005755 | 45 | 356 | 0.0 | 0.0 | 0.00 | 0.00 | 0.00 | 56 | 1010.3 |
| 20260504005249 | 46 | 356 | 0.0 | 0.0 | 0.00 | 0.00 | 0.00 | 55 | 1010.2 |
| 20260504004743 | 46 | 356 | 0.0 | 0.0 | 0.00 | 0.00 | 0.00 | 55 | 1010.1 |
| 20260504004237 | 46 | 356 | 0.0 | 0.0 | 0.00 | 0.00 | 0.00 | 53 | 1010.1 |
| 20260504003731 | 46 | 356 | 0.0 | 0.0 | 0.00 | 0.00 | 0.00 | 53 | 1010.0 |
| 20260504003225 | 47 | 356 | 0.0 | 0.0 | 0.00 | 0.00 | 0.00 | 52 | 1009.9 |
| 20260504002719 | 47 | 356 | 0.0 | 0.0 | 0.00 | 0.00 | 0.00 | 51 | 1009.9 |
| 20260504002213 | 48 | 356 | 0.0 | 0.0 | 0.00 | 0.00 | 0.00 | 51 | 1009.9 |
| 20260504001707 | 48 | 356 | 0.0 | 0.0 | 0.00 | 0.00 | 0.00 | 50 | 1009.8 |
| 20260504001201 | 48 | 356 | 0.0 | 0.0 | 0.00 | 0.00 | 0.00 | 48 | 1009.7 |
| 20260504000655 | 49 | 356 | 0.0 | 0.0 | 0.00 | 0.00 | 0.00 | 49 | 1009.6 |
| 20260504000149 | 49 | 356 | 0.0 | 0.0 | 0.00 | 0.00 | 0.00 | 48 | 1009.5 |
| 20260503235643 | 50 | 356 | 0.0 | 0.0 | 0.00 | 0.00 | 0.00 | 48 | 1009.5 |
| 20260503235137 | 50 | 356 | 0.0 | 0.0 | 0.00 | 0.00 | 0.00 | 46 | 1009.5 |
| 20260503234631 | 50 | 356 | 0.0 | 0.0 | 0.00 | 0.00 | 0.00 | 46 | 1009.4 |
| 20260503234125 | 51 | 356 | 0.0 | 0.0 | 0.00 | 0.00 | 0.00 | 45 | 1009.3 |
| 20260503233619 | 51 | 356 | 0.0 | 0.0 | 0.00 | 0.00 | 0.00 | 44 | 1009.3 |
| 20260503233113 | 51 | 356 | 0.0 | 0.0 | 0.00 | 0.00 | 0.00 | 45 | 1009.2 |
| 20260503232607 | 51 | 356 | 0.0 | 0.0 | 0.00 | 0.00 | 0.00 | 44 | 1009.2 |
| 20260503232101 | 52 | 356 | 0.0 | 0.0 | 0.00 | 0.00 | 0.00 | 45 | 1009.2 |
| 20260503231555 | 52 | 356 | 0.0 | 0.0 | 0.00 | 0.00 | 0.00 | 44 | 1009.1 |
| 20260503231049 | 52 | 41 | 0.0 | 0.0 | 0.00 | 0.00 | 0.00 | 44 | 1009.0 |
| 20260503230543 | 52 | 163 | 0.0 | 0.0 | 0.00 | 0.00 | 0.00 | 41 | 1009.0 |
| 20260503230037 | 53 | 156 | 0.0 | 0.0 | 0.00 | 0.00 | 0.00 | 41 | 1008.9 |
| 20260503225531 | 53 | 216 | 0.0 | 0.0 | 0.00 | 0.00 | 0.00 | 40 | 1008.8 |
| 20260503225025 | 53 | 180 | 0.9 | 0.0 | 0.00 | 0.00 | 0.00 | 39 | 1008.7 |
| 20260503224519 | 53 | 143 | 0.0 | 0.0 | 0.00 | 0.00 | 0.00 | 41 | 1008.6 |
| 20260503224013 | 53 | 221 | 0.9 | 0.0 | 0.00 | 0.00 | 0.00 | 40 | 1008.5 |
| 20260503223507 | 53 | 108 | 0.0 | 0.0 | 0.00 | 0.00 | 0.00 | 40 | 1008.5 |
| 20260503223001 | 53 | 0 | 0.0 | 0.0 | 0.00 | 0.00 | 0.00 | 43 | 1008.5 |
| 20260503222455 | 53 | 299 | 0.0 | 0.0 | 0.00 | 0.00 | 0.00 | 41 | 1008.4 |
| 20260503221949 | 53 | 179 | 0.0 | 0.0 | 0.00 | 0.00 | 0.00 | 40 | 1008.4 |
| 20260503221443 | 53 | 190 | 0.9 | 0.0 | 0.00 | 0.00 | 0.00 | 41 | 1008.3 |
| 20260503220937 | 53 | 15 | 0.0 | 0.0 | 0.00 | 0.00 | 0.00 | 40 | 1008.2 |
| 20260503220431 | 53 | 129 | 0.0 | 0.0 | 0.00 | 0.00 | 0.00 | 44 | 1008.2 |
| 20260503215925 | 54 | 95 | 0.0 | 0.0 | 0.00 | 0.00 | 0.00 | 42 | 1008.1 |
| 20260503215419 | 54 | 235 | 0.9 | 0.0 | 0.00 | 0.00 | 0.00 | 39 | 1008.0 |
| 20260503214913 | 54 | 106 | 0.0 | 0.0 | 0.00 | 0.00 | 0.00 | 40 | 1008.0 |
| 20260503214407 | 54 | 179 | 0.0 | 0.0 | 0.00 | 0.00 | 0.00 | 40 | 1007.9 |
| 20260503213901 | 54 | 93 | 0.9 | 0.0 | 0.00 | 0.00 | 0.00 | 39 | 1007.8 |
| 20260503213355 | 54 | 61 | 0.9 | 0.0 | 0.00 | 0.00 | 0.00 | 42 | 1007.7 |
| 20260503212849 | 54 | 145 | 0.0 | 0.0 | 0.00 | 0.00 | 0.00 | 42 | 1007.7 |
| 20260503212343 | 54 | 80 | 0.0 | 0.0 | 0.00 | 0.00 | 0.00 | 42 | 1007.5 |
| 20260503211837 | 54 | 187 | 0.0 | 0.0 | 0.00 | 0.00 | 0.00 | 42 | 1007.5 |
| 20260503211331 | 54 | 274 | 0.0 | 0.0 | 0.00 | 0.00 | 0.00 | 42 | 1007.4 |
| 20260503210825 | 55 | 47 | 0.0 | 0.0 | 0.00 | 0.00 | 0.00 | 42 | 1007.3 |
| 20260503210319 | 55 | 83 | 0.0 | 0.0 | 0.00 | 0.00 | 0.00 | 41 | 1007.2 |
| 20260503205813 | 55 | 75 | 0.0 | 0.0 | 0.00 | 0.00 | 0.00 | 42 | 1007.1 |
| 20260503205307 | 55 | 209 | 0.0 | 0.0 | 0.00 | 0.00 | 0.00 | 39 | 1007.0 |
| 20260503204801 | 55 | 123 | 0.9 | 0.0 | 0.00 | 0.00 | 0.00 | 39 | 1006.9 |
| 20260503204255 | 55 | 26 | 0.0 | 0.0 | 0.00 | 0.00 | 0.00 | 42 | 1006.7 |
| 20260503203749 | 55 | 178 | 1.7 | 0.0 | 0.00 | 0.00 | 0.00 | 38 | 1006.9 |
| 20260503203243 | 55 | 81 | 0.0 | 0.0 | 0.00 | 0.00 | 0.00 | 42 | 1006.8 |
| 20260503202737 | 55 | 148 | 0.0 | 0.0 | 0.00 | 0.00 | 0.00 | 42 | 1006.8 |